THOR ABLESTAR DEB, 672

Orbit data source: Space-Track

THOR ABLESTAR DEB, 672 is space debris in LEO originally from a launch on Sat, 28 Sep 1963 UTC launched from the Air Force Western Test Range (AFWTR). Debris objects in space refer to the collection of defunct objects orbiting the Earth. Examples of debris include non-operational satellites, rocket bodies, and fragments generated from explosions, collisions, or faulty payload assembly.

Loading next visibility...
Identifier
672, 1963-038D
Orbit
LEO
Country
Flag of USUS
Related business
Manufacturer
Unknown
Mission
Spacecraft
Bus & Motor
Unknown
Mass
Unknown
Launch date (UTC)
1963-09-28 (62 years ago)
Launch vehicle
Unknown
Launch site
Air Force Western Test Range (AFWTR)
Object type
Payload
Rocket body
Debris
Shape & HBR
Unknown
Radar Cross Section
Small (<0.1 m²)

Expand to show TLE details & history
Last TLE update: 15 hours ago

TLE from 15 hours ago
0 THOR ABLESTAR DEB
1 00672U 63038D   25243.27623080  .00000171  00000-0  18812-3 0  9991
2 00672  89.9978 336.2805 0027031 211.6327 204.1079 13.68427093 62193
Epoch: 2025-08-31T06:37Z
TLE epoch observation values (Epoch: 2025-08-31T06:37:46.341Z)
Latitude
55.70861°
Longitude
-102.85788°
Altitude
1,032.801 km
Speed
7.332 km/s
True Right ascension
22h 25m 08s
True Declination
55° 33' 15"
Sunlit
Object was in daylight at epoch
Visualization orbit readout
Latitude
Unknown
Longitude
Unknown
Altitude
Unknown
Speed
Unknown
Apparent Right ascension
Unknown
Apparent Declination
Unknown
Sunlit
N/A
Visualization observer readout
Local Sidereal Time
13:46:24
Azimuth
Unknown
Elevation
Unknown
Doppler factor
Unknown
Orbital elements
Apogee altitude
1,022.196 km
Perigee altitude
982.296 km
Semi-major axis
7,380.383 km
Eccentricity
0.0027
Inclination
89.9978°
RAAN
336.2805°
Arg. of periapsis
211.6327°
True anomaly
203.98177°
Mean anomaly
204.1079°
Eccentric anomaly
204.0448°
Mean motion
3.42314 °/min
Orbital period
105.17 mins
BSTAR
0.00018812
Loading maneuver chart data...
Computing Atmospheric mass density...

Documentation

Showing up to 5 results
|